Weather History for Elmendorf AFB, AK

Change the Weather History Date:

Sunday, December 2, 2012

  Actual Average Record
Temperature  
Mean Temperature 2 °F -  
Max Temperature 10 °F 21 °F 49 °F (1992)
Min Temperature -6 °F 9 °F -20 °F (2003)
Degree Days  
Heating Degree Days 63    
Moisture  
Dew Point -7 °F    
Average Humidity 72    
Maximum Humidity 80    
Minimum Humidity 62    
Precipitation  
Precipitation 0.00 in - - ()
Snow  
Snow 0.00 in - - ()
Snow Depth 2.00 in    
Sea Level Pressure  
Sea Level Pressure 29.37 in    
Wind  
Wind Speed 1 mph (East)    
Max Wind Speed 7 mph    
Max Gust Speed -    
Visibility 10 miles    
Events      
Averages and records for this station are not official NWS values.
T = Trace of Precipitation, MM = Missing Value Source: NWS Daily Summary

Daily Weather History Graph

Daily Weather History Graph

Search for Another Location

Airport:

Trip Planner

Search our weather history database for the weather conditions in past years. The results will help you decide how hot, cold, wet, or windy it might be!

Date:

Astronomy

Dec. 02, 2012 Rise Set
Actual Time 9:48 AM AKST 3:48 PM AKST
Civil Twilight 8:50 AM AKST 4:47 PM AKST
Nautical Twilight 7:52 AM AKST 5:45 PM AKST
Astronomical Twilight 6:59 AM AKST 6:38 PM AKST
Moon 8:23 PM AKST (12/2) 12:11 PM AKST (12/2)
Length of Visible Light 7h 57m
Length of Day
5h 59m
Waning Gibbous, 84% of the Moon is Illuminated
Dec 2
Waning Gibbous
Dec 6
Last Quarter
Dec 12
New
Dec 19
First Quarter
Dec 28
Full

Hourly Weather History & Observations

Time (AKST) Temp. Windchill Dew Point Humidity Pressure Visibility Wind Dir Wind Speed Gust Speed Precip Events Conditions
12:55 AM -3.5 °F - -10.8 °F 71% 29.44 in 10.0 mi Calm Calm - N/A   Clear
1:55 AM -3.3 °F -16.9 °F -11.9 °F 67% 29.42 in 10.0 mi East 6.9 mph - N/A   Clear
2:55 AM 7.7 °F - -2.6 °F 63% 29.42 in 10.0 mi Calm Calm - N/A   Clear
3:55 AM -0.2 °F -8.1 °F -6.5 °F 75% 29.42 in 10.0 mi East 3.5 mph - N/A   Clear
4:55 AM -2.2 °F - -9.6 °F 71% 29.42 in 10.0 mi Calm Calm - N/A   Clear
5:55 AM -0.8 °F - -8.5 °F 70% 29.41 in 10.0 mi Calm Calm - N/A   Clear
6:55 AM -5.3 °F -16.0 °F -12.1 °F 72% 29.40 in 10.0 mi East 4.6 mph - N/A   Clear
7:55 AM -5.8 °F - -12.6 °F 72% 29.40 in 10.0 mi Calm Calm - N/A   Clear
8:55 AM -6.0 °F - -12.5 °F 74% 29.39 in 10.0 mi Calm Calm - N/A   Clear
9:55 AM -6.3 °F - -12.8 °F 73% 29.39 in 10.0 mi Calm Calm - N/A   Clear
10:55 AM -3.1 °F - -9.2 °F 75% 29.38 in 10.0 mi Calm Calm - N/A   Clear
11:55 AM -0.4 °F - -7.4 °F 72% 29.36 in 10.0 mi Calm Calm - N/A   Clear
12:55 PM 6.8 °F - -3.6 °F 62% 29.37 in 10.0 mi Calm Calm - N/A   Clear
1:55 PM 10.4 °F - 0.7 °F 65% 29.35 in 10.0 mi Calm Calm - N/A   Clear
2:55 PM 8.8 °F - -0.8 °F 65% 29.33 in 10.0 mi Calm Calm - N/A   Clear
3:55 PM 3.4 °F - -2.9 °F 75% 29.32 in 10.0 mi Calm Calm - N/A   Clear
4:55 PM 7.5 °F - 1.8 °F 77% 29.32 in 10.0 mi Calm Calm - N/A   Clear
5:55 PM 6.1 °F - -0.4 °F 75% 29.32 in 10.0 mi Calm Calm - N/A   Clear
6:55 PM 3.4 °F -4.0 °F -1.5 °F 80% 29.31 in 10.0 mi East 3.5 mph - N/A   Clear
7:55 PM 0.5 °F -9.3 °F -5.1 °F 77% 29.31 in 10.0 mi East 4.6 mph - N/A   Clear
8:55 PM 1.6 °F - -6.3 °F 69% 29.31 in 10.0 mi Calm Calm - N/A   Clear
9:55 PM -4.9 °F -13.4 °F -11.0 °F 75% 29.32 in 10.0 mi East 3.5 mph - N/A   Clear
10:55 PM -1.7 °F - -7.4 °F 77% 29.34 in 10.0 mi Calm Calm - N/A   Clear
11:55 PM -3.3 °F -13.7 °F -8.5 °F 78% 29.35 in 10.0 mi East 4.6 mph - N/A   Clear